Regional Weather Roundup
Issued by NWS Goodland, KS

Home | Current Version | Previous Version | Graphics & Text | Print | Product List | Glossary On
Versions: 1 2 3 4 5 6 7 8 9 10 11 12 13 14 15 16 17 18 19 20 21 22 23 24 25 26 27 28 29 30 31 32 33 34 35 36 37 38 39 40 41 42 43 44 45 46 47 48 49 50
000
ASUS43 KGLD 051408
RWRGLD

GOODLAND FORECAST AREA HOURLY WEATHER ROUNDUP
NATIONAL WEATHER SERVICE GOODLAND KS
700 AM MST FRI FEB 05 2016

...OFFICIAL OBSERVATIONS...

CITY           SKY/WX    TMP DP  RH WIND       PRES   REMARKS
GOODLAND KS    CLOUDY    27  24  89 W9        30.27R
HILL CITY KS   CLOUDY    25  18  74 W6        30.33R
IMPERIAL NEB   CLOUDY    28  21  75 W13       30.24R WCI  17
MCCOOK NEB     CLOUDY    32  28  85 SW14      30.25F
AKRON CO       CLOUDY    17  14  88 W13       30.25R WCI   4
BURLINGTON CO  NOT AVBL
LIMON CO       CLOUDY    21  16  81 N12       30.25R WCI   9
$$

...UNOFFICIAL OBSERVATIONS...

CITY           SKY/WX    TMP DP  RH WIND       PRES   REMARKS
COLBY KS       CLOUDY    25  21  86 W8        30.29S
GOVE KS          N/A     21  32 100 MISG        N/A
LENORA KS        N/A     26  32 100 MISG        N/A
NORTON KS      CLOUDY    28  21  74 S7        30.29R
SHARON SPRINGS   N/A     27  22  80 NW9         N/A
KIT CARSON CO    N/A     27  24  89 MISG        N/A
YUMA CO          N/A     19  15  85 NW12        N/A  WCI   7
$$



USA.gov is the U.S. government's official web portal to all federal, state and local government web resources and services.